Weather in Wellington

New Zealand     41°17′50″S   174°46′33″E
temp.,
°C
wind,
m/s
gust,
m/s
humid.,
%
clouds,
%
prec.,
mm/h
press.,
hPa
HPBL,
m
17 may, mon
mon1700:00+14nnw111694100 1.1 10071040
03:00+14nnw8139191 0.8 1006689
06:00+14nnw61194100 2.3 1003573
09:00+13nnw4796100 7.6 1002449
12:00+13nnw3696100 21.1 1000379
15:00+13nne3795100 8.9 995487
18:00+13nw5886100 9.9 996392
21:00+14nw1015710 0.0 997688
18 may, tue
tue1800:00+13nw1317710 0.0 998942
03:00+14nw13218299 0.3 9971779
06:00+13nw101576100 3.0 9941183
09:00+12wnw1118636 0.0 9971854
12:00+12w1220554 0.1 9992116
15:00+12w8105299 0.0 10001933
18:00+11wnw1214569 0.1 10021520
21:00+11wnw1215612 0.0 10041135
19 may, wed
wed1900:00+12w811610 0.0 1006757
03:00+12wnw11136429 0.0 1006813
06:00+13wnw1114683 0.0 10071058
09:00+14wnw1013670 0.0 10081129
12:00+16wnw912660 0.0 1009916
15:00+16nw356811 0.0 1011310
18:00+13ene33845 0.0 101364
21:00+13ne348765 0.0 101691
20 may, thu
thu2000:00+13nne25894 0.0 1017141
03:00+14nne611890 0.0 1019473
06:00+13nne6109126 0.0 1019498
09:00+14nne698513 0.0 1022543
12:00+16nne698213 0.0 1022525
15:00+15n711794 0.1 1021868
18:00+14nne8127518 0.1 1021941
21:00+14n8118725 0.0 1020754
21 may, fri
fri2100:00+14n1013800 0.1 1019863
03:00+14nnw1013822 0.0 1017838
06:00+13nnw1115790 0.0 1017690
09:00+13nnw1115740 0.0 1017773
12:00+14nw1014710 0.0 1017988
15:00+14nw913730 0.0 1015882
18:00+14nw913775 0.0 1016584
21:00+14nw812862 0.1 1016421